TimeEET,TemperatureF,Dew PointF,Humidity,Sea Level PressureIn,VisibilityMPH,Wind Direction,Wind SpeedMPH,Gust SpeedMPH,PrecipitationIn,Events,Conditions,WindDirDegrees,DateUTC
12:20 AM,60.8,60.8,100,29.80,3.7,South,8.1,-,N/A,Rain-Thunderstorm,Light Thunderstorms and Rain,180,2012-10-29 22:20:00
12:50 AM,60.8,60.8,100,29.77,3.7,SSE,10.4,-,N/A,Rain-Thunderstorm,Light Thunderstorms and Rain,160,2012-10-29 22:50:00
1:20 AM,60.8,59.0,94,29.80,3.7,SSE,10.4,-,N/A,Rain-Thunderstorm,Light Thunderstorms and Rain,150,2012-10-29 23:20:00
1:50 AM,60.8,60.8,100,29.80,3.7,SSE,9.2,-,N/A,Rain-Thunderstorm,Light Thunderstorms and Rain,150,2012-10-29 23:50:00
2:00 AM,61,60,97,29.80,4,SSE,9.2,,,Rain-Thunderstorm,Thunderstorms and Rain,150,2012-10-30 00:00:00
2:20 AM,60.8,60.8,100,29.77,3.7,SE,11.5,-,N/A,Rain-Thunderstorm,Light Thunderstorms and Rain,130,2012-10-30 00:20:00
2:50 AM,60.8,60.8,100,29.71,3.7,SSE,13.8,-,N/A,Rain-Thunderstorm,Light Thunderstorms and Rain,150,2012-10-30 00:50:00
3:20 AM,60.8,60.8,100,29.71,3.7,SE,20.7,-,N/A,Rain-Thunderstorm,Light Thunderstorms and Rain,140,2012-10-30 01:20:00
3:50 AM,60.8,60.8,100,29.68,3.7,ESE,20.7,-,N/A,Rain,Light Rain Showers,120,2012-10-30 01:50:00
4:20 AM,60.8,59.0,94,29.65,4.3,SE,21.9,-,N/A,Rain,Light Rain Showers,130,2012-10-30 02:20:00
4:50 AM,62.6,59.0,88,29.68,4.3,SSE,16.1,-,N/A,Rain,Light Rain Showers,150,2012-10-30 02:50:00
5:20 AM,62.6,57.2,82,29.68,6.2,South,21.9,-,N/A,,Mostly Cloudy,170,2012-10-30 03:20:00
5:50 AM,62.6,57.2,82,29.65,6.2,South,23.0,-,N/A,,Mostly Cloudy,180,2012-10-30 03:50:00
6:20 AM,64.4,59.0,83,29.65,6.2,South,19.6,-,N/A,,Mostly Cloudy,190,2012-10-30 04:20:00
6:50 AM,64.4,57.2,77,29.65,6.2,South,18.4,-,N/A,,Scattered Clouds,190,2012-10-30 04:50:00
7:20 AM,64.4,55.4,73,29.65,6.2,South,20.7,-,N/A,,Partly Cloudy,180,2012-10-30 05:20:00
7:50 AM,66.2,57.2,73,29.65,6.2,South,19.6,-,N/A,,Partly Cloudy,180,2012-10-30 05:50:00
8:00 AM,66,57,65,29.67,6,South,19.6,,,,Partly Cloudy,180,2012-10-30 06:00:00
8:20 AM,66.2,57.2,73,29.68,6.2,South,21.9,-,N/A,,Partly Cloudy,190,2012-10-30 06:20:00
8:50 AM,68.0,57.2,68,29.68,6.2,South,20.7,-,N/A,,Scattered Clouds,190,2012-10-30 06:50:00
9:20 AM,66.2,57.2,73,29.71,6.2,SSW,25.3,-,N/A,,Partly Cloudy,200,2012-10-30 07:20:00
9:50 AM,66.2,57.2,73,29.71,6.2,SSW,23.0,-,N/A,,Partly Cloudy,210,2012-10-30 07:50:00
10:20 AM,68.0,55.4,64,29.74,6.2,SW,25.3,-,N/A,,Scattered Clouds,220,2012-10-30 08:20:00
10:50 AM,68.0,55.4,64,29.74,6.2,SW,23.0,-,N/A,,Scattered Clouds,220,2012-10-30 08:50:00
11:20 AM,68.0,55.4,64,29.74,6.2,SW,20.7,-,N/A,,Scattered Clouds,220,2012-10-30 09:20:00
11:50 AM,62.6,53.6,72,29.77,6.2,West,18.4,-,N/A,Rain-Thunderstorm,Light Thunderstorms and Rain,260,2012-10-30 09:50:00
12:20 PM,64.4,51.8,64,29.77,6.2,WSW,19.6,-,N/A,,Scattered Clouds,250,2012-10-30 10:20:00
12:50 PM,66.2,50.0,56,29.77,6.2,WSW,21.9,-,N/A,,Scattered Clouds,250,2012-10-30 10:50:00
1:20 PM,68.0,50.0,52,29.77,6.2,WSW,18.4,-,N/A,,Scattered Clouds,250,2012-10-30 11:20:00
1:50 PM,68.0,48.2,49,29.80,6.2,West,18.4,-,N/A,,Scattered Clouds,260,2012-10-30 11:50:00
2:00 PM,68,49,39,29.80,6,West,18.4,,,,Partly Cloudy,260,2012-10-30 12:00:00
2:20 PM,68.0,48.2,49,29.80,6.2,WSW,16.1,-,N/A,,Scattered Clouds,250,2012-10-30 12:20:00
2:50 PM,68.0,48.2,49,29.80,6.2,West,17.3,-,N/A,,Scattered Clouds,260,2012-10-30 12:50:00
3:20 PM,68.0,48.2,49,29.80,6.2,West,18.4,-,N/A,,Scattered Clouds,260,2012-10-30 13:20:00
3:50 PM,68.0,46.4,46,29.83,6.2,West,19.6,-,N/A,,Partly Cloudy,270,2012-10-30 13:50:00
4:20 PM,66.2,46.4,49,29.83,6.2,West,13.8,-,N/A,,Partly Cloudy,280,2012-10-30 14:20:00
4:50 PM,62.6,50.0,63,29.86,6.2,West,10.4,-,N/A,,Partly Cloudy,280,2012-10-30 14:50:00
5:20 PM,60.8,51.8,72,29.86,6.2,NNW,11.5,-,N/A,,Partly Cloudy,340,2012-10-30 15:20:00
5:50 PM,59.0,50.0,72,29.89,6.2,North,10.4,-,N/A,,Partly Cloudy,10,2012-10-30 15:50:00
6:20 PM,57.2,50.0,77,29.89,6.2,NNW,15.0,-,N/A,,Partly Cloudy,330,2012-10-30 16:20:00
6:50 PM,57.2,50.0,77,29.92,6.2,North,10.4,-,N/A,,Partly Cloudy,360,2012-10-30 16:50:00
7:20 PM,59.0,50.0,72,29.92,6.2,NNE,6.9,-,N/A,,Partly Cloudy,20,2012-10-30 17:20:00
7:50 PM,57.2,50.0,77,29.95,-9999.0,East,5.8,-,N/A,,Clear,90,2012-10-30 17:50:00
8:00 PM,58,50,67,29.95,6,East,5.8,,,,,90,2012-10-30 18:00:00
8:20 PM,59.0,50.0,72,29.95,-9999.0,East,5.8,-,N/A,,Clear,90,2012-10-30 18:20:00
8:50 PM,59.0,50.0,72,29.95,-9999.0,ENE,4.6,-,N/A,,Clear,60,2012-10-30 18:50:00
9:20 PM,60.8,50.0,68,29.98,-9999.0,Variable,4.6,-,N/A,,Clear,0,2012-10-30 19:20:00
9:50 PM,59.0,50.0,72,29.98,-9999.0,NE,3.5,-,N/A,,Clear,40,2012-10-30 19:50:00
10:20 PM,59.0,50.0,72,29.98,-9999.0,NE,4.6,-,N/A,,Clear,40,2012-10-30 20:20:00
10:50 PM,57.2,48.2,72,29.98,-9999.0,North,4.6,-,N/A,,Clear,10,2012-10-30 20:50:00
11:20 PM,59.0,50.0,72,29.98,-9999.0,NE,4.6,-,N/A,,Clear,50,2012-10-30 21:20:00
11:50 PM,59.0,50.0,72,29.98,-9999.0,NE,4.6,-,N/A,,Clear,40,2012-10-30 21:50:00